Location: Aiyede
(8.4833°N, 4.4500°E)
Time: 09:28:34
(UTC+00:00)

CZ-4 R/B - Pass Details

Date: 24 September 2020
Orbit: 581 x 588 km, 97.8° (Epoch: 21 October)

Event Time Altitude Azimuth Distance (km) Brightness Sun altitude
Rises 18:09:48 0° 160° (SSE) 2,791 7.7 -9.0°
Reaches altitude 10° 18:11:59 10° 155° (SSE) 1,892 6.8 -9.5°
Maximum altitude 18:15:59 53° 78° (ENE) 714 4.5 -10.5°
Drops below altitude 10° 18:19:59 10° 1° (N) 1,891 7.1 -11.5°
Sets 18:22:10 0° 356° (N) 2,790 8.0 -12.0°
